This is the latest recevied weather packets stored in our database for station/object SP9KB-13. If no packets are shown the sender has not sent any weather packets the latest 1 day(s).
| Time | Temp. | Humidity | Pressure | Rain* | Wind** | Luminosity | Snow |
|---|---|---|---|---|---|---|---|
| 1777988498 | 26.11° C | 24% | 991.9 hPa | 0 mm | 2.24 m/s, 224° | - | - |
| 1777988197 | 26.11° C | 24% | 992.3 hPa | 0 mm | 1.79 m/s, 239° | - | - |
| 1777987897 | 25° C | 24% | 992.2 hPa | 0 mm | 2.24 m/s, 207° | - | - |
| 1777987596 | 25° C | 25% | 992.2 hPa | 0 mm | 0.89 m/s, 171° | - | - |
| 1777987295 | 25° C | 24% | 992.3 hPa | 0 mm | 2.24 m/s, 262° | - | - |
| 1777986994 | 25.56° C | 24% | 992.2 hPa | 0 mm | 0.89 m/s, 241° | - | - |
| 1777986694 | 25.56° C | 25% | 992 hPa | 0 mm | 1.79 m/s, 84° | - | - |
| 1777986394 | 26.11° C | 24% | 992.2 hPa | 0 mm | 0.89 m/s, 241° | - | - |
| 1777986093 | 26.11° C | 24% | 992.2 hPa | 0 mm | 2.68 m/s, 219° | - | - |
| 1777985792 | 26.67° C | 25% | 992.1 hPa | 0 mm | 0.45 m/s, 246° | - | - |
| 1777985492 | 27.22° C | 24% | 992.2 hPa | 0 mm | 1.34 m/s, 242° | - | - |
| 1777985191 | 26.11° C | 23% | 992.3 hPa | 0 mm | 2.24 m/s, 215° | - | - |
| 1777984890 | 26.11° C | 25% | 992.4 hPa | 0 mm | 1.34 m/s, 239° | - | - |
| 1777984590 | 25° C | 26% | 992.4 hPa | 0 mm | 1.79 m/s, 230° | - | - |
| 1777984289 | 25.56° C | 26% | 992.4 hPa | 0 mm | 0.45 m/s, 214° | - | - |
| 1777983989 | 25.56° C | 26% | 992.6 hPa | 0 mm | 0.45 m/s, 83° | - | - |
| 1777983688 | 26.11° C | 25% | 992.7 hPa | 0 mm | 1.34 m/s, 188° | - | - |
| 1777983388 | 26.11° C | 28% | 992.6 hPa | 0 mm | 0.89 m/s, 42° | - | - |
| 1777983087 | 25.56° C | 28% | 992.6 hPa | 0 mm | 0.89 m/s, 109° | - | - |
| 1777982786 | 25° C | 28% | 992.7 hPa | 0 mm | 2.68 m/s, 223° | - | - |
| 1777982486 | 25° C | 30% | 992.7 hPa | 0 mm | 0.89 m/s, 258° | - | - |
| 1777982185 | 25.56° C | 30% | 992.7 hPa | 0 mm | 5.36 m/s, 188° | - | - |
| 1777981884 | 25° C | 31% | 992.7 hPa | 0 mm | 1.34 m/s, 223° | - | - |
| 1777981584 | 25° C | 32% | 992.7 hPa | 0 mm | 0.89 m/s, 109° | - | - |
| 1777981283 | 25° C | 32% | 993 hPa | 0 mm | 0.89 m/s, 228° | - | - |
* Rain latest hour (hover to see other rain measurements)
** Current wind speed in m/s (hover to see current wind gust speed)